This is the latest recevied weather packets stored in our database for station/object KK7RJD. If no packets are shown the sender has not sent any weather packets the latest 10 day(s).
| Time | Temp. | Humidity | Pressure | Rain* | Wind** | Luminosity | Snow |
|---|---|---|---|---|---|---|---|
| 1777081160 | 3.89° C | 44% | 1012.3 hPa | 0 mm | - | 29 W/m² | - |
| 1777080859 | 3.89° C | 46% | 1012.4 hPa | 0 mm | - | 28 W/m² | - |
| 1777080555 | 3.89° C | 47% | 1012.1 hPa | 0 mm | - | 30 W/m² | - |
| 1777080250 | 3.89° C | 45% | 1012.1 hPa | 0 mm | - | 44 W/m² | - |
| 1777079944 | 3.89° C | 45% | 1012.1 hPa | 0 mm | - | 49 W/m² | - |
| 1777079642 | 3.89° C | 45% | 1012.1 hPa | 0 mm | - | 47 W/m² | - |
| 1777079339 | 3.89° C | 45% | 1012.1 hPa | 0 mm | - | 44 W/m² | - |
| 1777079035 | 3.89° C | 45% | 1012 hPa | 0 mm | - | 46 W/m² | - |
| 1777078732 | 3.89° C | 41% | 1011.9 hPa | 0 mm | - | 52 W/m² | - |
| 1777078428 | 4.44° C | 43% | 1012 hPa | 0 mm | - | 43 W/m² | - |
| 1777078128 | 4.44° C | 40% | 1011.9 hPa | 0 mm | - | 44 W/m² | - |
| 1777077823 | 4.44° C | 43% | 1011.9 hPa | 0 mm | - | 56 W/m² | - |
| 1777077521 | 5° C | 41% | 1011.7 hPa | 0 mm | - | 68 W/m² | - |
| 1777077221 | 5° C | 40% | 1012 hPa | 0 mm | - | 122 W/m² | - |
| 1777076919 | 5° C | 40% | 1011.8 hPa | 0 mm | - | 130 W/m² | - |
| 1777076616 | 5.56° C | 41% | 1011.7 hPa | 0 mm | - | 163 W/m² | - |
| 1777076312 | 5.56° C | 39% | 1011.9 hPa | 0 mm | - | 180 W/m² | - |
| 1777076007 | 5.56° C | 40% | 1011.5 hPa | 0 mm | - | 204 W/m² | - |
| 1777075704 | 5.56° C | 39% | 1011.6 hPa | 0 mm | - | 245 W/m² | - |
| 1777075399 | 5.56° C | 41% | 1011.6 hPa | 0 mm | - | 236 W/m² | - |
| 1777075096 | 5.56° C | 41% | 1011.5 hPa | 0 mm | - | 246 W/m² | - |
| 1777074792 | 6.11° C | 40% | 1011.5 hPa | 0 mm | - | 266 W/m² | - |
| 1777074487 | 5.56° C | 41% | 1011.7 hPa | 0 mm | - | 271 W/m² | - |
| 1777074184 | 5° C | 40% | 1011.6 hPa | 0 mm | - | 287 W/m² | - |
| 1777073880 | 5.56° C | 42% | 1011.6 hPa | 0 mm | - | 306 W/m² | - |
* Rain latest hour (hover to see other rain measurements)
** Current wind speed in m/s (hover to see current wind gust speed)